Location: Peebles
(55.6412°N, 3.1714°W)
Time: 15:19:48
(UTC+01:00)

Cosmos 2297 - Pass Details

Date: 26 September 2021
Orbit: 834 x 860 km, 71.0° (Epoch: 17 October)

Event Time Altitude Azimuth Distance (km) Brightness Sun altitude
Rises 20:26:27 0° 219° (SW) 3,404 7.2 -12.8°
Reaches altitude 10° 20:28:54 10° 222° (SW) 2,476 6.5 -13.1°
Maximum altitude 20:34:36 73° 307° (NW) 897 4.0 -13.9°
Drops below altitude 10° 20:40:22 10° 33° (NNE) 2,505 6.0 -14.7°
Sets 20:42:51 0° 35° (NE) 3,447 6.7 -15.0°
